Year,Month,Day,Hour,Minute,Value (Times are PST for temperature in C)
2009,09,23,00,00,12.50
2009,09,23,00,01,12.50
2009,09,23,00,02,12.50
2009,09,23,00,03,12.50
2009,09,23,00,04,12.40
2009,09,23,00,05,12.40
2009,09,23,00,06,12.40
2009,09,23,00,07,12.40
2009,09,23,00,08,12.40
2009,09,23,00,09,12.40
2009,09,23,00,10,12.40
2009,09,23,00,11,12.40
2009,09,23,00,12,12.40
2009,09,23,00,13,12.40
2009,09,23,00,14,12.40
2009,09,23,00,15,12.40
2009,09,23,00,16,12.40
2009,09,23,00,17,12.40
2009,09,23,00,18,12.40
2009,09,23,00,19,12.40
2009,09,23,00,20,12.40
2009,09,23,00,21,12.40
2009,09,23,00,22,12.40
2009,09,23,00,23,12.40
2009,09,23,00,24,12.40
2009,09,23,00,25,12.40
2009,09,23,00,26,12.40
2009,09,23,00,27,12.40
2009,09,23,00,28,12.40
2009,09,23,00,29,12.40
2009,09,23,00,30,12.40
2009,09,23,00,31,12.40
2009,09,23,00,32,12.40
2009,09,23,00,33,12.40
2009,09,23,00,34,12.40
2009,09,23,00,35,12.40
2009,09,23,00,36,12.40
2009,09,23,00,37,12.40
2009,09,23,00,38,12.40
2009,09,23,00,39,12.40
2009,09,23,00,40,12.40
2009,09,23,00,41,12.40
2009,09,23,00,42,12.40
2009,09,23,00,43,12.40
2009,09,23,00,44,12.40
2009,09,23,00,45,12.40
2009,09,23,00,46,12.40
2009,09,23,00,47,12.40
2009,09,23,00,48,12.40
2009,09,23,00,49,12.30
2009,09,23,00,50,12.30
2009,09,23,00,51,12.30
2009,09,23,00,52,12.30
2009,09,23,00,53,12.30
2009,09,23,00,54,12.30
2009,09,23,00,55,12.30
2009,09,23,00,56,12.20
2009,09,23,00,57,12.20
2009,09,23,00,58,12.20
2009,09,23,00,59,12.20
2009,09,23,01,00,12.20
2009,09,23,01,01,12.20
2009,09,23,01,02,12.20
2009,09,23,01,03,12.20
2009,09,23,01,04,12.10
2009,09,23,01,05,12.10
2009,09,23,01,06,12.10
2009,09,23,01,07,12.10
2009,09,23,01,08,12.10
2009,09,23,01,09,12.10
2009,09,23,01,10,12.10
2009,09,23,01,11,12.10
2009,09,23,01,12,12.10
2009,09,23,01,13,12.10
2009,09,23,01,14,12.10
2009,09,23,01,15,12.00
2009,09,23,01,16,12.00
2009,09,23,01,17,12.00
2009,09,23,01,18,12.00
2009,09,23,01,19,12.00
2009,09,23,01,20,12.00
2009,09,23,01,21,12.00
2009,09,23,01,22,12.00
2009,09,23,01,23,12.00
2009,09,23,01,24,11.90
2009,09,23,01,25,11.90
2009,09,23,01,26,11.90
2009,09,23,01,27,11.90
2009,09,23,01,28,11.90
2009,09,23,01,29,11.90
2009,09,23,01,30,11.90
2009,09,23,01,31,11.80
2009,09,23,01,32,11.80
2009,09,23,01,33,11.80
2009,09,23,01,34,11.80
2009,09,23,01,35,11.70
2009,09,23,01,36,11.70
2009,09,23,01,37,11.70
2009,09,23,01,38,11.70
2009,09,23,01,39,11.70
2009,09,23,01,40,11.70
2009,09,23,01,41,11.60
2009,09,23,01,42,11.60
2009,09,23,01,43,11.60
2009,09,23,01,44,11.60
2009,09,23,01,45,11.60
2009,09,23,01,46,11.60
2009,09,23,01,47,11.60
2009,09,23,01,48,11.60
2009,09,23,01,49,11.60
2009,09,23,01,50,11.50
2009,09,23,01,51,11.50
2009,09,23,01,52,11.50
2009,09,23,01,53,11.50
2009,09,23,01,54,11.50
2009,09,23,01,55,11.40
2009,09,23,01,56,11.40
2009,09,23,01,57,11.40
2009,09,23,01,58,11.40
2009,09,23,01,59,11.40
2009,09,23,02,00,11.40
2009,09,23,02,01,11.40
2009,09,23,02,02,11.40
2009,09,23,02,03,11.40
2009,09,23,02,04,11.40
2009,09,23,02,05,11.40
2009,09,23,02,06,11.40
2009,09,23,02,07,11.40
2009,09,23,02,08,11.40
2009,09,23,02,09,11.40
2009,09,23,02,10,11.40
2009,09,23,02,11,11.40
2009,09,23,02,12,11.30
2009,09,23,02,13,11.30
2009,09,23,02,14,11.30
2009,09,23,02,15,11.30
2009,09,23,02,16,11.30
2009,09,23,02,17,11.30
2009,09,23,02,18,11.30
2009,09,23,02,19,11.30
2009,09,23,02,20,11.30
2009,09,23,02,21,11.30
2009,09,23,02,22,11.30
2009,09,23,02,23,11.30
2009,09,23,02,24,11.30
2009,09,23,02,25,11.30
2009,09,23,02,26,11.30
2009,09,23,02,27,11.30
2009,09,23,02,28,11.30
2009,09,23,02,29,11.30
2009,09,23,02,30,11.30
2009,09,23,02,31,11.30
2009,09,23,02,32,11.30
2009,09,23,02,33,11.30
2009,09,23,02,34,11.30
2009,09,23,02,35,11.20
2009,09,23,02,36,11.20
2009,09,23,02,37,11.20
2009,09,23,02,38,11.20
2009,09,23,02,39,11.20
2009,09,23,02,40,11.20
2009,09,23,02,41,11.20
2009,09,23,02,42,11.20
2009,09,23,02,43,11.20
2009,09,23,02,44,11.20
2009,09,23,02,45,11.10
2009,09,23,02,46,11.10
2009,09,23,02,47,11.10
2009,09,23,02,48,11.10
2009,09,23,02,49,11.10
2009,09,23,02,50,11.10
2009,09,23,02,51,11.10
2009,09,23,02,52,11.10
2009,09,23,02,53,11.10
2009,09,23,02,54,11.10
2009,09,23,02,55,11.00
2009,09,23,02,56,11.00
2009,09,23,02,57,11.00
2009,09,23,02,58,10.90
2009,09,23,02,59,10.90
2009,09,23,03,00,10.90
2009,09,23,03,01,10.90
2009,09,23,03,02,10.90
2009,09,23,03,03,10.90
2009,09,23,03,04,10.90
2009,09,23,03,05,10.90
2009,09,23,03,06,10.90
2009,09,23,03,07,10.90
2009,09,23,03,08,10.90
2009,09,23,03,09,10.90
2009,09,23,03,10,10.90
2009,09,23,03,11,10.90
2009,09,23,03,12,10.90
2009,09,23,03,13,10.90
2009,09,23,03,14,10.90
2009,09,23,03,15,10.90
2009,09,23,03,16,10.90
2009,09,23,03,17,10.90
2009,09,23,03,18,10.90
2009,09,23,03,19,10.90
2009,09,23,03,20,10.90
2009,09,23,03,21,10.90
2009,09,23,03,22,10.90
2009,09,23,03,23,10.90
2009,09,23,03,24,10.90
2009,09,23,03,25,10.90
2009,09,23,03,26,10.90
2009,09,23,03,27,10.90
2009,09,23,03,28,10.90
2009,09,23,03,29,10.90
2009,09,23,03,30,10.90
2009,09,23,03,31,10.90
2009,09,23,03,32,10.90
2009,09,23,03,33,10.90
2009,09,23,03,34,10.90
2009,09,23,03,35,10.80
2009,09,23,03,36,10.80
2009,09,23,03,37,10.80
2009,09,23,03,38,10.80
2009,09,23,03,39,10.80
2009,09,23,03,40,10.80
2009,09,23,03,41,10.80
2009,09,23,03,42,10.80
2009,09,23,03,43,10.80
2009,09,23,03,44,10.80
2009,09,23,03,45,10.80
2009,09,23,03,46,10.70
2009,09,23,03,47,10.70
2009,09,23,03,48,10.70
2009,09,23,03,49,10.70
2009,09,23,03,50,10.70
2009,09,23,03,51,10.80
2009,09,23,03,52,10.80
2009,09,23,03,53,10.80
2009,09,23,03,54,10.80
2009,09,23,03,55,10.80
2009,09,23,03,56,10.80
2009,09,23,03,57,10.70
2009,09,23,03,58,10.70
2009,09,23,03,59,10.70
2009,09,23,04,00,10.70
2009,09,23,04,01,10.60
2009,09,23,04,02,10.60
2009,09,23,04,03,10.60
2009,09,23,04,04,10.60
2009,09,23,04,05,10.60
2009,09,23,04,06,10.60
2009,09,23,04,07,10.60
2009,09,23,04,08,10.60
2009,09,23,04,09,10.60
2009,09,23,04,10,10.60
2009,09,23,04,11,10.60
2009,09,23,04,12,10.60
2009,09,23,04,13,10.60
2009,09,23,04,14,10.60
2009,09,23,04,15,10.60
2009,09,23,04,16,10.60
2009,09,23,04,17,10.70
2009,09,23,04,18,10.70
2009,09,23,04,19,10.70
2009,09,23,04,20,10.70
2009,09,23,04,21,10.70
2009,09,23,04,22,10.70
2009,09,23,04,23,10.70
2009,09,23,04,24,10.70
2009,09,23,04,25,10.70
2009,09,23,04,26,10.70
2009,09,23,04,27,10.70
2009,09,23,04,28,10.70
2009,09,23,04,29,10.70
2009,09,23,04,30,10.70
2009,09,23,04,31,10.70
2009,09,23,04,32,10.60
2009,09,23,04,33,10.60
2009,09,23,04,34,10.60
2009,09,23,04,35,10.60
2009,09,23,04,36,10.60
2009,09,23,04,37,10.60
2009,09,23,04,38,10.60
2009,09,23,04,39,10.60
2009,09,23,04,40,10.60
2009,09,23,04,41,10.60
2009,09,23,04,42,10.60
2009,09,23,04,43,10.60
2009,09,23,04,44,10.60
2009,09,23,04,45,10.60
2009,09,23,04,46,10.50
2009,09,23,04,47,10.50
2009,09,23,04,48,10.50
2009,09,23,04,49,10.40
2009,09,23,04,50,10.40
2009,09,23,04,51,10.40
2009,09,23,04,52,10.40
2009,09,23,04,53,10.50
2009,09,23,04,54,10.40
2009,09,23,04,55,10.40
2009,09,23,04,56,10.40
2009,09,23,04,57,10.40
2009,09,23,04,58,10.40
2009,09,23,04,59,10.40
2009,09,23,05,00,10.40
2009,09,23,05,01,10.40
2009,09,23,05,02,10.40
2009,09,23,05,03,10.40
2009,09,23,05,04,10.40
2009,09,23,05,05,10.40
2009,09,23,05,06,10.40
2009,09,23,05,07,10.30
2009,09,23,05,08,10.30
2009,09,23,05,09,10.30
2009,09,23,05,10,10.30
2009,09,23,05,11,10.30
2009,09,23,05,12,10.30
2009,09,23,05,13,10.30
2009,09,23,05,14,10.30
2009,09,23,05,15,10.30
2009,09,23,05,16,10.20
2009,09,23,05,17,10.20
2009,09,23,05,18,10.20
2009,09,23,05,19,10.20
2009,09,23,05,20,10.30
2009,09,23,05,21,10.20
2009,09,23,05,22,10.30
2009,09,23,05,23,10.30
2009,09,23,05,24,10.30
2009,09,23,05,25,10.30
2009,09,23,05,26,10.30
2009,09,23,05,27,10.30
2009,09,23,05,28,10.30
2009,09,23,05,29,10.30
2009,09,23,05,30,10.30
2009,09,23,05,31,10.30
2009,09,23,05,32,10.20
2009,09,23,05,33,10.20
2009,09,23,05,34,10.20
2009,09,23,05,35,10.20
2009,09,23,05,36,10.20
2009,09,23,05,37,10.20
2009,09,23,05,38,10.20
2009,09,23,05,39,10.20
2009,09,23,05,40,10.20
2009,09,23,05,41,10.20
2009,09,23,05,42,10.20
2009,09,23,05,43,10.20
2009,09,23,05,44,10.20
2009,09,23,05,45,10.20
2009,09,23,05,46,10.20
2009,09,23,05,47,10.20
2009,09,23,05,48,10.20
2009,09,23,05,49,10.20
2009,09,23,05,50,10.10
2009,09,23,05,51,10.10
2009,09,23,05,52,10.10
2009,09,23,05,53,10.10
2009,09,23,05,54,10.10
2009,09,23,05,55,10.10
2009,09,23,05,56,10.10
2009,09,23,05,57,10.10
2009,09,23,05,58,10.10
2009,09,23,05,59,10.10
2009,09,23,06,00,10.10
2009,09,23,06,01,10.10
2009,09,23,06,02,10.10
2009,09,23,06,03,10.10
2009,09,23,06,04,10.10
2009,09,23,06,05,10.10
2009,09,23,06,06,10.00
2009,09,23,06,07,10.00
2009,09,23,06,08,10.00
2009,09,23,06,09,9.90
2009,09,23,06,10,9.90
2009,09,23,06,11,9.90
2009,09,23,06,12,9.90
2009,09,23,06,13,9.80
2009,09,23,06,14,9.80
2009,09,23,06,15,9.80
2009,09,23,06,16,9.80
2009,09,23,06,17,9.80
2009,09,23,06,18,9.80
2009,09,23,06,19,9.80
2009,09,23,06,20,9.80
2009,09,23,06,21,9.80
2009,09,23,06,22,9.80
2009,09,23,06,23,9.80
2009,09,23,06,24,9.80
2009,09,23,06,25,9.80
2009,09,23,06,26,9.90
2009,09,23,06,27,9.90
2009,09,23,06,28,9.90
2009,09,23,06,29,9.90
2009,09,23,06,30,9.90
2009,09,23,06,31,9.90
2009,09,23,06,32,9.90
2009,09,23,06,33,10.00
2009,09,23,06,34,10.00
2009,09,23,06,35,10.00
2009,09,23,06,36,9.90
2009,09,23,06,37,9.90
2009,09,23,06,38,9.90
2009,09,23,06,39,9.90
2009,09,23,06,40,9.90
2009,09,23,06,41,9.90
2009,09,23,06,42,9.90
2009,09,23,06,43,9.90
2009,09,23,06,44,9.80
2009,09,23,06,45,9.80
2009,09,23,06,46,9.80
2009,09,23,06,47,9.80
2009,09,23,06,48,9.80
2009,09,23,06,49,9.80
2009,09,23,06,50,9.80
2009,09,23,06,51,9.80
2009,09,23,06,52,9.80
2009,09,23,06,53,9.80
2009,09,23,06,54,9.70
2009,09,23,06,55,9.70
2009,09,23,06,56,9.70
2009,09,23,06,57,9.70
2009,09,23,06,58,9.70
2009,09,23,06,59,9.70
2009,09,23,07,00,9.70
2009,09,23,07,01,9.70
2009,09,23,07,02,9.70
2009,09,23,07,03,9.70
2009,09,23,07,04,9.70
2009,09,23,07,05,9.80
2009,09,23,07,06,9.80
2009,09,23,07,07,9.80
2009,09,23,07,08,9.80
2009,09,23,07,09,9.80
2009,09,23,07,10,9.80
2009,09,23,07,11,9.80
2009,09,23,07,12,9.90
2009,09,23,07,13,9.90
2009,09,23,07,14,9.90
2009,09,23,07,15,9.90
2009,09,23,07,16,9.90
2009,09,23,07,17,9.90
2009,09,23,07,18,9.80
2009,09,23,07,19,9.80
2009,09,23,07,20,9.80
2009,09,23,07,21,9.90
2009,09,23,07,22,9.90
2009,09,23,07,23,9.90
2009,09,23,07,24,9.90
2009,09,23,07,25,10.00
2009,09,23,07,26,10.00
2009,09,23,07,27,10.00
2009,09,23,07,28,10.10
2009,09,23,07,29,10.10
2009,09,23,07,30,10.10
2009,09,23,07,31,10.10
2009,09,23,07,32,10.20
2009,09,23,07,33,10.20
2009,09,23,07,34,10.20
2009,09,23,07,35,10.20
2009,09,23,07,36,10.30
2009,09,23,07,37,10.30
2009,09,23,07,38,10.30
2009,09,23,07,39,10.30
2009,09,23,07,40,10.30
2009,09,23,07,41,10.30
2009,09,23,07,42,10.40
2009,09,23,07,43,10.40
2009,09,23,07,44,10.40
2009,09,23,07,45,10.50
2009,09,23,07,46,10.50
2009,09,23,07,47,10.60
2009,09,23,07,48,10.60
2009,09,23,07,49,10.60
2009,09,23,07,50,10.70
2009,09,23,07,51,10.80
2009,09,23,07,52,10.80
2009,09,23,07,53,10.90
2009,09,23,07,54,10.90
2009,09,23,07,55,11.00
2009,09,23,07,56,11.10
2009,09,23,07,57,11.10
2009,09,23,07,58,11.20
2009,09,23,07,59,11.20
2009,09,23,08,00,11.30
2009,09,23,08,01,11.50
2009,09,23,08,02,11.60
2009,09,23,08,03,11.70
2009,09,23,08,04,11.70
2009,09,23,08,05,11.70
2009,09,23,08,06,11.80
2009,09,23,08,07,11.80
2009,09,23,08,08,11.90
2009,09,23,08,09,12.00
2009,09,23,08,10,12.00
2009,09,23,08,11,12.10
2009,09,23,08,12,12.10
2009,09,23,08,13,12.10
2009,09,23,08,14,12.20
2009,09,23,08,15,12.20
2009,09,23,08,16,12.20
2009,09,23,08,17,12.30
2009,09,23,08,18,12.30
2009,09,23,08,19,12.40
2009,09,23,08,20,12.40
2009,09,23,08,21,12.50
2009,09,23,08,22,12.60
2009,09,23,08,23,12.60
2009,09,23,08,24,12.70
2009,09,23,08,25,12.80
2009,09,23,08,26,12.90
2009,09,23,08,27,12.90
2009,09,23,08,28,13.00
2009,09,23,08,29,13.10
2009,09,23,08,30,13.10
2009,09,23,08,31,13.20
2009,09,23,08,32,13.30
2009,09,23,08,33,13.30
2009,09,23,08,34,13.40
2009,09,23,08,35,13.50
2009,09,23,08,36,13.60
2009,09,23,08,37,13.70
2009,09,23,08,38,13.80
2009,09,23,08,39,13.90
2009,09,23,08,40,13.90
2009,09,23,08,41,14.00
2009,09,23,08,42,14.10
2009,09,23,08,43,14.20
2009,09,23,08,44,14.30
2009,09,23,08,45,14.40
2009,09,23,08,46,14.50
2009,09,23,08,47,14.60
2009,09,23,08,48,14.60
2009,09,23,08,49,14.70
2009,09,23,08,50,14.80
2009,09,23,08,51,14.80
2009,09,23,08,52,14.90
2009,09,23,08,53,15.00
2009,09,23,08,54,15.00
2009,09,23,08,55,15.00
2009,09,23,08,56,15.00
2009,09,23,08,57,15.00
2009,09,23,08,58,15.00
2009,09,23,08,59,15.00
2009,09,23,09,00,15.00
2009,09,23,09,01,15.00
2009,09,23,09,02,15.00
2009,09,23,09,03,15.00
2009,09,23,09,04,15.00
2009,09,23,09,05,15.00
2009,09,23,09,06,14.90
2009,09,23,09,07,14.80
2009,09,23,09,08,14.80
2009,09,23,09,09,14.80
2009,09,23,09,10,14.80
2009,09,23,09,11,14.80
2009,09,23,09,12,14.80
2009,09,23,09,13,14.90
2009,09,23,09,14,14.90
2009,09,23,09,15,15.00
2009,09,23,09,16,15.00
2009,09,23,09,17,15.00
2009,09,23,09,18,15.00
2009,09,23,09,19,15.00
2009,09,23,09,20,14.90
2009,09,23,09,21,14.80
2009,09,23,09,22,14.70
2009,09,23,09,23,14.60
2009,09,23,09,24,14.60
2009,09,23,09,25,14.50
2009,09,23,09,26,14.40
2009,09,23,09,27,14.30
2009,09,23,09,28,14.20
2009,09,23,09,29,14.10
2009,09,23,09,30,14.10
2009,09,23,09,31,14.10
2009,09,23,09,32,14.20
2009,09,23,09,33,14.20
2009,09,23,09,34,14.30
2009,09,23,09,35,14.30
2009,09,23,09,36,14.40
2009,09,23,09,37,14.50
2009,09,23,09,38,14.60
2009,09,23,09,39,14.60
2009,09,23,09,40,14.70
2009,09,23,09,41,14.80
2009,09,23,09,42,15.00
2009,09,23,09,43,15.00
2009,09,23,09,44,15.00
2009,09,23,09,45,15.20
2009,09,23,09,46,15.40
2009,09,23,09,47,15.60
2009,09,23,09,48,15.80
2009,09,23,09,49,15.90
2009,09,23,09,50,16.10
2009,09,23,09,51,16.20
2009,09,23,09,52,16.30
2009,09,23,09,53,16.30
2009,09,23,09,54,16.40
2009,09,23,09,55,16.40
2009,09,23,09,56,16.40
2009,09,23,09,57,16.40
2009,09,23,09,58,16.40
2009,09,23,09,59,16.30
2009,09,23,10,00,16.30
2009,09,23,10,01,16.30
2009,09,23,10,02,16.30
2009,09,23,10,03,16.30
2009,09,23,10,04,16.30
2009,09,23,10,05,16.30
2009,09,23,10,06,16.30
2009,09,23,10,07,16.30
2009,09,23,10,08,16.30
2009,09,23,10,09,16.40
2009,09,23,10,10,16.40
2009,09,23,10,11,16.60
2009,09,23,10,12,16.70
2009,09,23,10,13,16.90
2009,09,23,10,14,17.10
2009,09,23,10,15,17.20
2009,09,23,10,16,17.30
2009,09,23,10,17,17.40
2009,09,23,10,18,17.50
2009,09,23,10,19,17.60
2009,09,23,10,20,17.70
2009,09,23,10,21,17.80
2009,09,23,10,22,17.80
2009,09,23,10,23,17.80
2009,09,23,10,24,17.90
2009,09,23,10,25,17.90
2009,09,23,10,26,17.80
2009,09,23,10,27,17.80
2009,09,23,10,28,17.80
2009,09,23,10,29,17.90
2009,09,23,10,30,17.90
2009,09,23,10,31,18.00
2009,09,23,10,32,18.00
2009,09,23,10,33,18.10
2009,09,23,10,34,18.20
2009,09,23,10,35,18.40
2009,09,23,10,36,18.50
2009,09,23,10,37,18.70
2009,09,23,10,38,18.80
2009,09,23,10,39,19.00
2009,09,23,10,40,19.10
2009,09,23,10,41,19.20
2009,09,23,10,42,19.40
2009,09,23,10,43,19.50
2009,09,23,10,44,19.60
2009,09,23,10,45,19.70
2009,09,23,10,46,19.80
2009,09,23,10,47,19.90
2009,09,23,10,48,20.00
2009,09,23,10,49,20.00
2009,09,23,10,50,20.00
2009,09,23,10,51,20.00
2009,09,23,10,52,20.10
2009,09,23,10,53,20.10
2009,09,23,10,54,20.10
2009,09,23,10,55,20.00
2009,09,23,10,56,20.00
2009,09,23,10,57,20.00
2009,09,23,10,58,20.00
2009,09,23,10,59,20.00
2009,09,23,11,00,20.00
2009,09,23,11,01,20.00
2009,09,23,11,02,20.00
2009,09,23,11,03,19.90
2009,09,23,11,04,19.90
2009,09,23,11,05,19.90
2009,09,23,11,06,19.80
2009,09,23,11,07,19.70
2009,09,23,11,08,19.70
2009,09,23,11,09,19.70
2009,09,23,11,10,19.70
2009,09,23,11,11,19.80
2009,09,23,11,12,19.80
2009,09,23,11,13,19.90
2009,09,23,11,14,19.90
2009,09,23,11,15,19.90
2009,09,23,11,16,20.00
2009,09,23,11,17,20.00
2009,09,23,11,18,19.90
2009,09,23,11,19,19.90
2009,09,23,11,20,19.90
2009,09,23,11,21,19.90
2009,09,23,11,22,19.90
2009,09,23,11,23,19.90
2009,09,23,11,24,19.90
2009,09,23,11,25,19.90
2009,09,23,11,26,19.90
2009,09,23,11,27,19.90
2009,09,23,11,28,19.90
2009,09,23,11,29,19.90
2009,09,23,11,30,20.00
2009,09,23,11,31,20.00
2009,09,23,11,32,20.00
2009,09,23,11,33,20.10
2009,09,23,11,34,20.10
2009,09,23,11,35,20.20
2009,09,23,11,36,20.20
2009,09,23,11,37,20.30
2009,09,23,11,38,20.30
2009,09,23,11,39,20.50
2009,09,23,11,40,20.60
2009,09,23,11,41,20.60
2009,09,23,11,42,20.70
2009,09,23,11,43,20.80
2009,09,23,11,44,20.80
2009,09,23,11,45,20.90
2009,09,23,11,46,20.90
2009,09,23,11,47,20.90
2009,09,23,11,48,20.90
2009,09,23,11,49,21.00
2009,09,23,11,50,21.00
2009,09,23,11,51,21.10
2009,09,23,11,52,21.10
2009,09,23,11,53,21.20
2009,09,23,11,54,21.20
2009,09,23,11,55,21.30
2009,09,23,11,56,21.30
2009,09,23,11,57,21.30
2009,09,23,11,58,21.20
2009,09,23,11,59,21.20
2009,09,23,12,00,21.10
2009,09,23,12,01,21.10
2009,09,23,12,02,21.00
2009,09,23,12,03,20.90
2009,09,23,12,04,20.90
2009,09,23,12,05,21.00
2009,09,23,12,06,21.00
2009,09,23,12,07,20.90
2009,09,23,12,08,20.90
2009,09,23,12,09,20.90
2009,09,23,12,10,20.90
2009,09,23,12,11,20.90
2009,09,23,12,12,20.90
2009,09,23,12,13,21.00
2009,09,23,12,14,21.10
2009,09,23,12,15,21.20
2009,09,23,12,16,21.20
2009,09,23,12,17,21.30
2009,09,23,12,18,21.40
2009,09,23,12,19,21.50
2009,09,23,12,20,21.50
2009,09,23,12,21,21.60
2009,09,23,12,22,21.70
2009,09,23,12,23,21.80
2009,09,23,12,24,21.80
2009,09,23,12,25,21.90
2009,09,23,12,26,22.00
2009,09,23,12,27,22.10
2009,09,23,12,28,22.20
2009,09,23,12,29,22.30
2009,09,23,12,30,22.50
2009,09,23,12,31,22.60
2009,09,23,12,32,22.60
2009,09,23,12,33,22.70
2009,09,23,12,34,22.70
2009,09,23,12,35,22.80
2009,09,23,12,36,22.70
2009,09,23,12,37,22.70
2009,09,23,12,38,22.80
2009,09,23,12,39,22.80
2009,09,23,12,40,22.80
2009,09,23,12,41,22.90
2009,09,23,12,42,23.00
2009,09,23,12,43,23.10
2009,09,23,12,44,23.20
2009,09,23,12,45,23.30
2009,09,23,12,46,23.30
2009,09,23,12,47,23.30
2009,09,23,12,48,23.40
2009,09,23,12,49,23.50
2009,09,23,12,50,23.60
2009,09,23,12,51,23.60
2009,09,23,12,52,23.60
2009,09,23,12,53,23.60
2009,09,23,12,54,23.70
2009,09,23,12,55,23.70
2009,09,23,12,56,23.70
2009,09,23,12,57,23.50
2009,09,23,12,58,23.20
2009,09,23,12,59,23.00
2009,09,23,13,00,22.80
2009,09,23,13,01,22.80
2009,09,23,13,02,22.70
2009,09,23,13,03,22.70
2009,09,23,13,04,22.70
2009,09,23,13,05,22.50
2009,09,23,13,06,22.40
2009,09,23,13,07,22.40
2009,09,23,13,08,22.30
2009,09,23,13,09,22.40
2009,09,23,13,10,22.30
2009,09,23,13,11,22.30
2009,09,23,13,12,22.30
2009,09,23,13,13,22.30
2009,09,23,13,14,22.40
2009,09,23,13,15,22.40
2009,09,23,13,16,22.40
2009,09,23,13,17,22.40
2009,09,23,13,18,22.40
2009,09,23,13,19,22.30
2009,09,23,13,20,22.30
2009,09,23,13,21,22.30
2009,09,23,13,22,22.20
2009,09,23,13,23,22.20
2009,09,23,13,24,22.20
2009,09,23,13,25,22.10
2009,09,23,13,26,22.10
2009,09,23,13,27,22.00
2009,09,23,13,28,21.90
2009,09,23,13,29,21.80
2009,09,23,13,30,21.80
2009,09,23,13,31,21.80
2009,09,23,13,32,21.80
2009,09,23,13,33,21.90
2009,09,23,13,34,21.90
2009,09,23,13,35,21.90
2009,09,23,13,36,21.90
2009,09,23,13,37,21.80
2009,09,23,13,38,21.80
2009,09,23,13,39,21.60
2009,09,23,13,40,21.50
2009,09,23,13,41,21.30
2009,09,23,13,42,21.10
2009,09,23,13,43,21.00
2009,09,23,13,44,20.80
2009,09,23,13,45,20.80
2009,09,23,13,46,20.80
2009,09,23,13,47,20.80
2009,09,23,13,48,20.80
2009,09,23,13,49,20.70
2009,09,23,13,50,20.60
2009,09,23,13,51,20.50
2009,09,23,13,52,20.40
2009,09,23,13,53,20.40
2009,09,23,13,54,20.30
2009,09,23,13,55,20.30
2009,09,23,13,56,20.30
2009,09,23,13,57,20.10
2009,09,23,13,58,20.00
2009,09,23,13,59,19.90
2009,09,23,14,00,19.80
2009,09,23,14,01,19.80
2009,09,23,14,02,19.70
2009,09,23,14,03,19.80
2009,09,23,14,04,19.80
2009,09,23,14,05,19.80
2009,09,23,14,06,19.90
2009,09,23,14,07,19.90
2009,09,23,14,08,20.00
2009,09,23,14,09,20.00
2009,09,23,14,10,20.10
2009,09,23,14,11,20.20
2009,09,23,14,12,20.30
2009,09,23,14,13,20.30
2009,09,23,14,14,20.30
2009,09,23,14,15,20.30
2009,09,23,14,16,20.30
2009,09,23,14,17,20.20
2009,09,23,14,18,20.20
2009,09,23,14,19,20.10
2009,09,23,14,20,20.10
2009,09,23,14,21,20.10
2009,09,23,14,22,20.20
2009,09,23,14,23,20.20
2009,09,23,14,24,20.10
2009,09,23,14,25,20.20
2009,09,23,14,26,20.20
2009,09,23,14,27,20.30
2009,09,23,14,28,20.30
2009,09,23,14,29,20.30
2009,09,23,14,30,20.30
2009,09,23,14,31,20.40
2009,09,23,14,32,20.50
2009,09,23,14,33,20.60
2009,09,23,14,34,20.70
2009,09,23,14,35,20.80
2009,09,23,14,36,20.80
2009,09,23,14,37,20.70
2009,09,23,14,38,20.60
2009,09,23,14,39,20.60
2009,09,23,14,40,20.50
2009,09,23,14,41,20.50
2009,09,23,14,42,20.40
2009,09,23,14,43,20.30
2009,09,23,14,44,20.20
2009,09,23,14,45,20.20
2009,09,23,14,46,20.20
2009,09,23,14,47,20.10
2009,09,23,14,48,20.10
2009,09,23,14,49,20.00
2009,09,23,14,50,20.00
2009,09,23,14,51,20.00
2009,09,23,14,52,20.00
2009,09,23,14,53,20.10
2009,09,23,14,54,20.10
2009,09,23,14,55,20.10
2009,09,23,14,56,20.20
2009,09,23,14,57,20.20
2009,09,23,14,58,20.20
2009,09,23,14,59,20.20
2009,09,23,15,00,20.20
2009,09,23,15,01,20.20
2009,09,23,15,02,20.30
2009,09,23,15,03,20.30
2009,09,23,15,04,20.20
2009,09,23,15,05,20.20
2009,09,23,15,06,20.20
2009,09,23,15,07,20.10
2009,09,23,15,08,20.00
2009,09,23,15,09,20.00
2009,09,23,15,10,20.00
2009,09,23,15,11,20.10
2009,09,23,15,12,20.20
2009,09,23,15,13,20.30
2009,09,23,15,14,20.30
2009,09,23,15,15,20.30
2009,09,23,15,16,20.30
2009,09,23,15,17,20.30
2009,09,23,15,18,20.20
2009,09,23,15,19,20.10
2009,09,23,15,20,20.00
2009,09,23,15,21,20.00
2009,09,23,15,22,19.90
2009,09,23,15,23,19.80
2009,09,23,15,24,19.60
2009,09,23,15,25,19.50
2009,09,23,15,26,19.40
2009,09,23,15,27,19.40
2009,09,23,15,28,19.40
2009,09,23,15,29,19.40
2009,09,23,15,30,19.30
2009,09,23,15,31,19.20
2009,09,23,15,32,19.10
2009,09,23,15,33,19.00
2009,09,23,15,34,18.90
2009,09,23,15,35,18.90
2009,09,23,15,36,18.90
2009,09,23,15,37,18.80
2009,09,23,15,38,18.70
2009,09,23,15,39,18.60
2009,09,23,15,40,18.60
2009,09,23,15,41,18.60
2009,09,23,15,42,18.60
2009,09,23,15,43,18.50
2009,09,23,15,44,18.50
2009,09,23,15,45,18.50
2009,09,23,15,46,18.40
2009,09,23,15,47,18.40
2009,09,23,15,48,18.40
2009,09,23,15,49,18.50
2009,09,23,15,50,18.50
2009,09,23,15,51,18.50
2009,09,23,15,52,18.60
2009,09,23,15,53,18.60
2009,09,23,15,54,18.70
2009,09,23,15,55,18.80
2009,09,23,15,56,18.90
2009,09,23,15,57,18.90
2009,09,23,15,58,18.90
2009,09,23,15,59,19.00
2009,09,23,16,00,19.00
2009,09,23,16,01,19.00
2009,09,23,16,02,18.90
2009,09,23,16,03,18.80
2009,09,23,16,04,18.60
2009,09,23,16,05,18.50
2009,09,23,16,06,18.40
2009,09,23,16,07,18.40
2009,09,23,16,08,18.30
2009,09,23,16,09,18.30
2009,09,23,16,10,18.30
2009,09,23,16,11,18.30
2009,09,23,16,12,18.40
2009,09,23,16,13,18.40
2009,09,23,16,14,18.50
2009,09,23,16,15,18.60
2009,09,23,16,16,18.60
2009,09,23,16,17,18.70
2009,09,23,16,18,18.70
2009,09,23,16,19,18.70
2009,09,23,16,20,18.70
2009,09,23,16,21,18.70
2009,09,23,16,22,18.80
2009,09,23,16,23,18.90
2009,09,23,16,24,19.00
2009,09,23,16,25,19.20
2009,09,23,16,26,19.30
2009,09,23,16,27,19.40
2009,09,23,16,28,19.40
2009,09,23,16,29,19.50
2009,09,23,16,30,19.60
2009,09,23,16,31,19.60
2009,09,23,16,32,19.70
2009,09,23,16,33,19.60
2009,09,23,16,34,19.60
2009,09,23,16,35,19.50
2009,09,23,16,36,19.50
2009,09,23,16,37,19.50
2009,09,23,16,38,19.50
2009,09,23,16,39,19.50
2009,09,23,16,40,19.40
2009,09,23,16,41,19.40
2009,09,23,16,42,19.40
2009,09,23,16,43,19.40
2009,09,23,16,44,19.40
2009,09,23,16,45,19.40
2009,09,23,16,46,19.40
2009,09,23,16,47,19.40
2009,09,23,16,48,19.40
2009,09,23,16,49,19.40
2009,09,23,16,50,19.40
2009,09,23,16,51,19.40
2009,09,23,16,52,19.40
2009,09,23,16,53,19.40
2009,09,23,16,54,19.40
2009,09,23,16,55,19.40
2009,09,23,16,56,19.40
2009,09,23,16,57,19.40
2009,09,23,16,58,19.40
2009,09,23,16,59,19.40
2009,09,23,17,00,19.30
2009,09,23,17,01,19.30
2009,09,23,17,02,19.30
2009,09,23,17,03,19.30
2009,09,23,17,04,19.20
2009,09,23,17,05,19.20
2009,09,23,17,06,19.20
2009,09,23,17,07,19.20
2009,09,23,17,08,19.10
2009,09,23,17,09,19.10
2009,09,23,17,10,19.20
2009,09,23,17,11,19.20
2009,09,23,17,12,19.20
2009,09,23,17,13,19.30
2009,09,23,17,14,19.30
2009,09,23,17,15,19.30
2009,09,23,17,16,19.40
2009,09,23,17,17,19.40
2009,09,23,17,18,19.40
2009,09,23,17,19,19.50
2009,09,23,17,20,19.50
2009,09,23,17,21,19.50
2009,09,23,17,22,19.50